Flag for Germany Weather past 2 weeks in Aurich, Lower Saxony, Germany

41 °F


Feels Like: 35 °F
Forecast: 41 / 46 °F
Wind: 10 mph from Southwest

Location: Wittmundhaven

Current Time: Nov 25, 2015 at 5:35:36 AM

Latest Report: Nov 25, 2015 at 4:20 AM

Visibility: 2 mi

Pressure: 29.59 "Hg

Humidity: 93%

Dew point: 39 °F

Location of AurichLocation

Historic Weather in Aurich — Graph


Aurich temperature yesterday

Maximum temperature yesterday: 39 °F (at 12:20 AM)
Minimum temperature yesterday: 36 °F (at 9:20 AM)
Average temperature yesterday: 38 °F

Past Weeks' High & Low Weather Summary

High61 °F (Nov 10, 10:20 AM)100% (Nov 11, 10:20 AM)30.21 "Hg (Nov 11, 10:20 AM)
Low28 °F (Nov 23, 8:20 AM)54% (Nov 13, 2:20 PM)29.27 "Hg (Nov 21, 5:20 AM)
Average48 °F85%29.79 "Hg
* Reported Nov 10 3:20 AM — Nov 25 3:20 AM, Aurich, Weather by CustomWeather, © 2015

Note: Actual official high and low records may vary slightly from our data, if they occured in-between our weather recording intervals... More about our weather records


Aurich weather history for previous 24 hours

Time TempWeatherWind HumidityBarometerVisibility
3:20 AM
Wed, Nov 25
39 °FFog.12 mph100%29.59 "Hg1 mi
2:20 AM39 °FFog.13 mph93%29.59 "Hg2 mi
1:20 AM39 °FFog.13 mph93%29.62 "Hg3 mi
12:20 AM37 °FFog.14 mph100%29.62 "Hg3 mi
11:20 PM
Tue, Nov 24
37 °FPassing clouds.14 mph93%29.65 "Hg4 mi
10:20 PM37 °FLight rain. Passing clouds.16 mph93%29.65 "Hg5 mi
9:20 PM37 °FLight rain. Passing clouds.15 mph93%29.65 "Hg5 mi
8:50 PM37 °FPassing clouds.15 mph93%29.68 "Hg5 mi
8:20 PM36 °FPassing clouds.16 mph93%29.68 "Hg4 mi
7:20 PM37 °FPassing clouds.20 mph87%29.71 "Hg6 mi
6:20 PM37 °FPassing clouds.18 mph87%29.71 "Hg4 mi
5:20 PM37 °FPassing clouds.21 mph87%29.71 "Hg4 mi
4:20 PM36 °FLight rain. Fog.18 mph93%29.74 "Hg3 mi
3:20 PM36 °FRain. Fog.20 mph93%29.77 "Hg3 mi
2:20 PM37 °FLight rain. Fog.20 mph93%29.77 "Hg3 mi
1:20 PM37 °FLight rain. Fog.23 mph93%29.80 "Hg3 mi
12:20 PM37 °FLight rain. Fog.18 mph93%29.83 "Hg3 mi
11:20 AM36 °FLight rain. Fog.21 mph93%29.86 "Hg3 mi
10:20 AM36 °FLight rain. Broken clouds.22 mph93%29.89 "Hg4 mi
9:20 AM36 °FLight rain. Broken clouds.21 mph93%29.92 "Hg5 mi
8:20 AM37 °FDrizzle. Broken clouds.17 mph87%29.95 "Hg6 mi
7:20 AM39 °FPartly cloudy.16 mph81%29.95 "HgN/A
6:20 AM39 °FPartly cloudy.17 mph81%29.98 "HgN/A
5:20 AM39 °FPartly cloudy.16 mph75%29.98 "HgN/A
Weather by CustomWeather, © 2015

See weather overviewHow to use our weather pages